CMA27S VHHH-LFPG

Flight info

Callsign CMA27S
Flight time N/A
Altitude 32100
Route BEKOL A461 SHL W22 TEPID W24 OSNOV G586 QP B330 ELKAL W179 IGNAK/K0926S1010 W179 WFX/K0928S0980 W179 OMBON Y1 NUPNI/K0913S1040 Y1 SADAN W186 KAMUD/K0893F340 L141 MOKDU/K0896F360 L141 TISIB L163 SR N193 OGOLI T898 DARVA/N0483F360 B476 METKA L88 RASAM N199 EDATA M11 REBLO DCT CRM/N0486F380 DCT MAKOL Q12 GOGAR Q18 DOLAP DCT ROTAR DCT SRN DCT CERVI DCT MOLUS DCT UNKIR DCT GIVRI DCT TINIL
Aircraft B77W/H-SDE1E2E3FGHIJ2J3J4J5M1RWXY/LB1D1

Departure

Time N/A
Airport Hong Kong International Airport (VHHH)

Arrival

Time 2026-05-05 03:15
Airport Charles de Gaulle International Airport (LFPG)
Time Latitude Longitude Altitude Speed Heading
2026-05-04 20:12 41.13410 70.73067 36080 ft 474 kts 265°
2026-05-04 20:13 41.13103 70.68710 36068 ft 474 kts 265°
2026-05-04 20:13 41.12471 70.60017 36077 ft 473 kts 265°
2026-05-04 20:14 41.11830 70.51330 36093 ft 472 kts 265°
2026-05-04 20:14 41.11191 70.42697 36080 ft 473 kts 266°
2026-05-04 20:15 41.10542 70.34009 36086 ft 473 kts 266°
2026-05-04 20:15 41.09976 70.25352 36072 ft 472 kts 270°
2026-05-04 20:16 41.10375 70.16709 36077 ft 469 kts 278°
2026-05-04 20:16 41.11191 70.08104 36082 ft 469 kts 278°
2026-05-04 20:17 41.11986 69.99499 36062 ft 470 kts 278°
2026-05-04 20:17 41.12742 69.90934 36048 ft 470 kts 278°
2026-05-04 20:18 41.13486 69.82322 36052 ft 469 kts 278°
2026-05-04 20:18 41.14218 69.73771 36036 ft 468 kts 278°
2026-05-04 20:19 41.14948 69.65190 36031 ft 468 kts 278°
2026-05-04 20:19 41.15672 69.56607 36021 ft 467 kts 278°
2026-05-04 20:20 41.16387 69.48057 36018 ft 466 kts 278°
2026-05-04 20:20 41.17095 69.39497 36015 ft 466 kts 278°
2026-05-04 20:21 41.17797 69.30948 36021 ft 465 kts 278°
2026-05-04 20:21 41.18662 69.18164 36021 ft 465 kts 274°
2026-05-04 20:22 41.18862 69.09634 36016 ft 465 kts 274°
2026-05-04 20:22 41.19064 69.01026 36009 ft 465 kts 274°
2026-05-04 20:23 41.19289 68.92468 36007 ft 464 kts 275°
2026-05-04 20:23 41.19984 68.83987 36008 ft 462 kts 279°
2026-05-04 20:24 41.20827 68.75472 35992 ft 463 kts 279°
2026-05-04 20:24 41.21641 68.67042 35998 ft 463 kts 279°
2026-05-04 20:25 41.22438 68.58537 35990 ft 463 kts 279°
2026-05-04 20:25 41.23218 68.50079 35995 ft 463 kts 279°
2026-05-04 20:26 41.23995 68.41584 35988 ft 463 kts 279°
2026-05-04 20:26 41.24768 68.33089 35982 ft 462 kts 279°
2026-05-04 20:27 41.25529 68.24650 35997 ft 462 kts 279°
2026-05-04 20:27 41.26288 68.16158 35989 ft 462 kts 279°
2026-05-04 20:28 41.27036 68.07720 35993 ft 462 kts 279°
2026-05-04 20:28 41.27783 67.99238 35985 ft 461 kts 279°
2026-05-04 20:29 41.28641 67.90797 35984 ft 459 kts 283°
2026-05-04 20:29 41.29944 67.82503 35985 ft 459 kts 284°
2026-05-04 20:30 41.31267 67.74231 35982 ft 459 kts 284°
2026-05-04 20:30 41.32572 67.65909 35980 ft 459 kts 283°
2026-05-04 20:31 41.33860 67.57577 35990 ft 459 kts 283°
2026-05-04 20:31 41.35130 67.49297 35984 ft 459 kts 283°
2026-05-04 20:32 41.36406 67.40938 35973 ft 459 kts 283°
2026-05-04 20:32 41.37670 67.32617 35989 ft 459 kts 283°
2026-05-04 20:33 41.38934 67.24260 35985 ft 460 kts 283°
2026-05-04 20:33 41.40189 67.15916 35985 ft 460 kts 283°
2026-05-04 20:34 41.41432 67.07607 35983 ft 460 kts 282°
2026-05-04 20:34 41.42680 66.99219 35984 ft 460 kts 282°
2026-05-04 20:35 41.43921 66.90838 35984 ft 460 kts 282°
2026-05-04 20:35 41.45151 66.82487 35980 ft 460 kts 282°
2026-05-04 20:36 41.46380 66.74102 35981 ft 461 kts 282°
2026-05-04 20:36 41.47597 66.65752 35979 ft 461 kts 282°
2026-05-04 20:37 41.48390 66.57249 35970 ft 462 kts 272°
2026-05-04 20:37 41.48388 66.48705 35979 ft 463 kts 271°
2026-05-04 20:38 41.48363 66.40104 35976 ft 463 kts 271°
2026-05-04 20:38 41.48361 66.31547 35977 ft 463 kts 271°
2026-05-04 20:39 41.48367 66.22958 35974 ft 463 kts 271°
2026-05-04 20:39 41.48369 66.14375 35974 ft 462 kts 271°
2026-05-04 20:40 41.48362 66.05828 35972 ft 462 kts 271°
2026-05-04 20:40 41.48349 65.97247 35971 ft 462 kts 271°
2026-05-04 20:41 41.48330 65.88700 35972 ft 462 kts 271°
2026-05-04 20:41 41.48305 65.80149 35973 ft 462 kts 271°
2026-05-04 20:42 41.48241 65.71561 35972 ft 462 kts 270°
2026-05-04 20:42 41.48137 65.63051 35971 ft 462 kts 270°
2026-05-04 20:43 41.48027 65.54486 35973 ft 462 kts 270°
2026-05-04 20:43 41.47917 65.45912 35974 ft 462 kts 270°
2026-05-04 20:44 41.47803 65.37363 35973 ft 462 kts 270°
2026-05-04 20:44 41.47683 65.28776 35970 ft 461 kts 270°
2026-05-04 20:45 41.47557 65.20232 35973 ft 461 kts 270°
2026-05-04 20:45 41.47424 65.11700 35970 ft 461 kts 269°
2026-05-04 20:46 41.47285 65.03150 35970 ft 461 kts 269°
2026-05-04 20:46 41.47141 64.94655 35969 ft 460 kts 269°
2026-05-04 20:47 41.46989 64.86118 35977 ft 460 kts 269°
2026-05-04 20:47 41.46831 64.77572 35978 ft 459 kts 269°
2026-05-04 20:48 41.46696 64.70514 35975 ft 459 kts 269°
2026-05-04 20:48 41.46498 64.60595 35976 ft 459 kts 269°
2026-05-04 20:49 41.46352 64.53481 35974 ft 459 kts 269°
2026-05-04 20:49 41.46165 64.45001 35975 ft 459 kts 268°
2026-05-04 20:50 41.45970 64.36499 35977 ft 459 kts 268°
2026-05-04 20:50 41.45778 64.28015 35976 ft 459 kts 268°
2026-05-04 20:51 41.45580 64.19516 35982 ft 459 kts 268°
2026-05-04 20:51 41.45373 64.10965 35975 ft 459 kts 268°
2026-05-04 20:52 41.45162 64.02473 35979 ft 460 kts 268°
2026-05-04 20:52 41.44944 63.93998 35972 ft 460 kts 268°
2026-05-04 20:53 41.44719 63.85458 35975 ft 460 kts 268°
2026-05-04 20:53 41.44490 63.76954 35970 ft 459 kts 268°
2026-05-04 20:54 41.44256 63.68475 35971 ft 459 kts 268°
2026-05-04 20:54 41.44001 63.59955 35966 ft 459 kts 268°
2026-05-04 20:55 41.43727 63.51436 35967 ft 459 kts 268°
2026-05-04 20:55 41.43451 63.42965 35968 ft 458 kts 268°
2026-05-04 20:56 41.43172 63.34463 35958 ft 458 kts 268°
2026-05-04 20:56 41.42889 63.26029 35958 ft 458 kts 268°
2026-05-04 20:57 41.42599 63.17557 35953 ft 458 kts 267°
2026-05-04 20:57 41.42301 63.09045 35958 ft 458 kts 267°
2026-05-04 20:58 41.41998 63.00559 35961 ft 459 kts 267°
2026-05-04 20:58 41.41689 62.92076 35958 ft 459 kts 267°
2026-05-04 20:59 41.41374 62.83605 35957 ft 459 kts 267°
2026-05-04 20:59 41.41053 62.75127 35950 ft 459 kts 267°
2026-05-04 21:00 41.40726 62.66623 35956 ft 459 kts 267°
2026-05-04 21:00 41.40395 62.58161 35951 ft 458 kts 267°
2026-05-04 21:01 41.40056 62.49690 35946 ft 458 kts 267°
2026-05-04 21:01 41.39735 62.41231 35946 ft 458 kts 267°
2026-05-04 21:02 41.39424 62.32795 35954 ft 457 kts 267°
2026-05-04 21:02 41.39107 62.24350 35949 ft 457 kts 267°
2026-05-04 21:03 41.38781 62.15893 35942 ft 457 kts 267°
2026-05-04 21:03 41.38449 62.07455 35947 ft 456 kts 267°
2026-05-04 21:04 41.38111 61.99024 35939 ft 456 kts 267°
2026-05-04 21:04 41.37766 61.90587 35946 ft 455 kts 267°
2026-05-04 21:05 41.37416 61.82146 35946 ft 455 kts 267°
2026-05-04 21:05 41.37061 61.73747 35937 ft 455 kts 267°
2026-05-04 21:06 41.36703 61.65394 35937 ft 454 kts 267°
2026-05-04 21:06 41.36336 61.56990 35934 ft 454 kts 267°
2026-05-04 21:07 41.35966 61.48579 35934 ft 453 kts 267°
2026-05-04 21:07 41.35588 61.40244 35932 ft 453 kts 266°
2026-05-04 21:08 41.35195 61.31871 35928 ft 452 kts 266°
2026-05-04 21:08 41.34801 61.23572 35926 ft 451 kts 266°
2026-05-04 21:09 41.34404 61.15249 35930 ft 450 kts 266°
2026-05-04 21:09 41.34001 61.06932 35926 ft 449 kts 266°
2026-05-04 21:10 41.33594 60.98646 35924 ft 448 kts 266°
2026-05-04 21:10 41.33184 60.90398 35922 ft 447 kts 266°
2026-05-04 21:11 41.32770 60.82206 35917 ft 446 kts 266°
2026-05-04 21:11 41.32348 60.73979 35916 ft 445 kts 266°
2026-05-04 21:12 41.31922 60.65772 35915 ft 444 kts 266°
2026-05-04 21:12 41.31492 60.57566 35912 ft 444 kts 266°
2026-05-04 21:13 41.31058 60.49386 35914 ft 443 kts 266°
2026-05-04 21:13 41.30744 60.41204 35915 ft 442 kts 271°
2026-05-04 21:14 41.31135 60.33106 35914 ft 441 kts 274°
2026-05-04 21:14 41.31561 60.24950 35907 ft 441 kts 274°
2026-05-04 21:15 41.31961 60.16796 35912 ft 441 kts 274°
2026-05-04 21:15 41.32348 60.08657 35909 ft 441 kts 274°
2026-05-04 21:16 41.32729 60.00550 35913 ft 440 kts 274°
2026-05-04 21:16 41.33112 59.92408 35908 ft 440 kts 274°
2026-05-04 21:17 41.33494 59.84268 35911 ft 440 kts 274°
2026-05-04 21:17 41.33870 59.76155 35910 ft 440 kts 274°
2026-05-04 21:18 41.34190 59.68059 35911 ft 440 kts 270°
2026-05-04 21:18 41.33726 59.59944 35912 ft 440 kts 263°
2026-05-04 21:19 41.32933 59.51863 35905 ft 440 kts 263°
2026-05-04 21:19 41.32155 59.43798 35906 ft 440 kts 264°
2026-05-04 21:20 41.31391 59.35762 35910 ft 439 kts 264°
2026-05-04 21:20 41.30620 59.27656 35906 ft 439 kts 264°
2026-05-04 21:21 41.29855 59.19659 35909 ft 438 kts 264°
2026-05-04 21:21 41.29077 59.11597 35903 ft 438 kts 264°
2026-05-04 21:22 41.28298 59.03583 35904 ft 437 kts 263°
2026-05-04 21:22 41.27514 58.95579 35903 ft 436 kts 263°
2026-05-04 21:23 41.26729 58.87631 35903 ft 436 kts 263°
2026-05-04 21:23 41.25937 58.79653 35898 ft 435 kts 263°
2026-05-04 21:24 41.25138 58.71675 35894 ft 435 kts 263°
2026-05-04 21:24 41.24338 58.63734 35898 ft 435 kts 263°
2026-05-04 21:25 41.23529 58.55760 35894 ft 434 kts 263°
2026-05-04 21:25 41.22716 58.47806 35892 ft 435 kts 263°
2026-05-04 21:26 41.21902 58.39892 35891 ft 434 kts 263°
2026-05-04 21:26 41.21077 58.31923 35890 ft 434 kts 263°
2026-05-04 21:27 41.20249 58.23977 35888 ft 434 kts 263°
2026-05-04 21:27 41.19420 58.16054 35885 ft 434 kts 263°
2026-05-04 21:28 41.18579 58.08100 35884 ft 434 kts 262°
2026-05-04 21:28 41.17726 58.00169 35880 ft 434 kts 262°
2026-05-04 21:29 41.16867 57.92235 35879 ft 434 kts 262°
2026-05-04 21:29 41.16012 57.84355 35875 ft 433 kts 262°
2026-05-04 21:30 41.15148 57.76432 35875 ft 433 kts 262°
2026-05-04 21:30 41.14285 57.68560 35871 ft 433 kts 262°
2026-05-04 21:31 41.12973 57.56697 35868 ft 432 kts 262°
2026-05-04 21:32 41.12092 57.48795 35870 ft 432 kts 262°
2026-05-04 21:32 41.11207 57.40908 35866 ft 432 kts 262°
2026-05-04 21:33 41.10323 57.33071 35867 ft 432 kts 262°
2026-05-04 21:33 41.09426 57.25182 35863 ft 431 kts 262°
2026-05-04 21:34 41.08531 57.17347 35863 ft 431 kts 261°
2026-05-04 21:34 41.07630 57.09512 35861 ft 430 kts 261°
2026-05-04 21:35 41.06722 57.01667 35864 ft 430 kts 261°
2026-05-04 21:35 41.05810 56.93826 35861 ft 430 kts 261°
2026-05-04 21:36 41.04895 56.86014 35859 ft 430 kts 261°
2026-05-04 21:36 41.03974 56.78196 35854 ft 430 kts 261°
2026-05-04 21:37 41.03053 56.70413 35862 ft 430 kts 261°
2026-05-04 21:37 41.02120 56.62563 35853 ft 430 kts 261°
2026-05-04 21:38 41.01188 56.54788 35850 ft 430 kts 261°
2026-05-04 21:38 41.00604 56.46896 35845 ft 429 kts 268°
2026-05-04 21:39 41.00543 56.39035 35847 ft 429 kts 268°
2026-05-04 21:39 41.00477 56.32464 35847 ft 428 kts 268°
2026-05-04 21:40 41.00382 56.24576 35839 ft 427 kts 268°
2026-05-04 21:40 41.00262 56.15433 35841 ft 427 kts 267°
2026-05-04 21:41 41.00171 56.08895 35844 ft 426 kts 267°
2026-05-04 21:41 41.00059 56.01050 35844 ft 426 kts 267°
2026-05-04 21:42 40.99941 55.93189 35843 ft 426 kts 267°
2026-05-04 21:42 40.99821 55.85390 35837 ft 426 kts 267°
2026-05-04 21:43 40.99691 55.77518 35838 ft 426 kts 267°
2026-05-04 21:43 40.99562 55.69708 35838 ft 427 kts 266°
2026-05-04 21:44 40.99433 55.61868 35846 ft 427 kts 266°
2026-05-04 21:44 40.99299 55.53991 35843 ft 428 kts 266°
2026-05-04 21:45 40.99160 55.46086 35845 ft 430 kts 266°
2026-05-04 21:45 40.99016 55.38164 35847 ft 431 kts 266°
2026-05-04 21:46 40.98867 55.30266 35863 ft 431 kts 266°
2026-05-04 21:46 40.98711 55.22313 35852 ft 432 kts 266°
2026-05-04 21:47 40.98550 55.14362 35854 ft 433 kts 266°
2026-05-04 21:47 40.98384 55.06398 35863 ft 433 kts 266°
2026-05-04 21:48 40.98213 54.98456 35863 ft 433 kts 266°
2026-05-04 21:48 40.98037 54.90476 35860 ft 433 kts 266°
2026-05-04 21:49 40.97846 54.82493 35862 ft 433 kts 265°
2026-05-04 21:49 40.97646 54.74520 35856 ft 433 kts 265°
2026-05-04 21:50 40.97444 54.66580 35861 ft 433 kts 265°
2026-05-04 21:50 40.97238 54.58601 35866 ft 432 kts 265°
2026-05-04 21:51 40.97028 54.50673 35864 ft 432 kts 265°
2026-05-04 21:51 40.96813 54.42734 35862 ft 431 kts 265°
2026-05-04 21:52 40.96594 54.34859 35860 ft 431 kts 265°
2026-05-04 21:52 40.96368 54.26934 35858 ft 430 kts 265°
2026-05-04 21:53 40.96138 54.19060 35857 ft 429 kts 265°
2026-05-04 21:53 40.95903 54.11174 35852 ft 429 kts 265°
2026-05-04 21:54 40.95662 54.03295 35862 ft 428 kts 265°
2026-05-04 21:54 40.95417 53.95443 35856 ft 428 kts 264°
2026-05-04 21:55 40.95165 53.87556 35859 ft 428 kts 264°
2026-05-04 21:55 40.94908 53.79687 35859 ft 429 kts 264°
2026-05-04 21:56 40.94646 53.71794 35864 ft 429 kts 264°
2026-05-04 21:56 40.94379 53.63945 35858 ft 429 kts 264°
2026-05-04 21:57 40.94107 53.56059 35868 ft 430 kts 264°
2026-05-04 21:57 40.93827 53.48148 35861 ft 430 kts 264°
2026-05-04 21:58 40.93543 53.40235 35861 ft 430 kts 264°
2026-05-04 21:58 40.93254 53.32325 35861 ft 430 kts 264°
2026-05-04 21:59 40.92962 53.24469 35865 ft 431 kts 264°
2026-05-04 21:59 40.92664 53.16554 35866 ft 431 kts 264°
2026-05-04 22:00 40.92354 53.08649 35870 ft 431 kts 264°
2026-05-04 22:00 40.92023 53.00737 35869 ft 431 kts 264°
2026-05-04 22:01 40.91689 52.92833 35873 ft 431 kts 264°
2026-05-04 22:01 40.91353 52.84921 35873 ft 430 kts 264°
2026-05-04 22:02 40.91015 52.77043 35870 ft 430 kts 263°
2026-05-04 22:02 40.90674 52.69174 35876 ft 430 kts 263°
2026-05-04 22:03 40.90279 52.61255 35878 ft 429 kts 261°
2026-05-04 22:03 40.89214 52.53516 35874 ft 427 kts 256°
2026-05-04 22:04 40.87983 52.45872 35876 ft 427 kts 256°
2026-05-04 22:04 40.86760 52.38186 35878 ft 427 kts 256°
2026-05-04 22:05 40.85545 52.30506 35873 ft 427 kts 256°
2026-05-04 22:05 40.84329 52.22830 35874 ft 427 kts 256°
2026-05-04 22:06 40.83115 52.15209 35877 ft 427 kts 256°
2026-05-04 22:06 40.81889 52.07544 35874 ft 427 kts 256°
2026-05-04 22:07 40.80657 51.99878 35873 ft 427 kts 256°
2026-05-04 22:07 40.79420 51.92216 35868 ft 427 kts 256°
2026-05-04 22:08 40.78176 51.84543 35872 ft 427 kts 256°
2026-05-04 22:08 40.76938 51.76934 35871 ft 426 kts 256°
2026-05-04 22:09 40.75688 51.69288 35877 ft 426 kts 256°
2026-05-04 22:09 40.74435 51.61646 35868 ft 426 kts 256°
2026-05-04 22:10 40.73177 51.54020 35869 ft 426 kts 255°
2026-05-04 22:10 40.72303 51.46274 35870 ft 428 kts 264°
2026-05-04 22:11 40.72021 51.38451 35868 ft 428 kts 264°
2026-05-04 22:11 40.71719 51.30593 35868 ft 428 kts 264°
2026-05-04 22:12 40.71405 51.22803 35877 ft 428 kts 263°
2026-05-04 22:12 40.71081 51.14945 35878 ft 428 kts 263°
2026-05-04 22:13 40.70751 51.07093 35883 ft 428 kts 263°
2026-05-04 22:13 40.70418 50.99291 35876 ft 428 kts 263°
2026-05-04 22:14 40.70077 50.91427 35879 ft 428 kts 263°
2026-05-04 22:14 40.69732 50.83585 35879 ft 429 kts 263°
2026-05-04 22:15 40.69384 50.75784 35885 ft 429 kts 263°
2026-05-04 22:15 40.69029 50.67937 35869 ft 429 kts 263°
2026-05-04 22:16 40.68670 50.60120 35873 ft 429 kts 263°
2026-05-04 22:16 40.68307 50.52278 35872 ft 429 kts 263°
2026-05-04 22:17 40.67935 50.44426 35876 ft 429 kts 263°
2026-05-04 22:17 40.67555 50.36586 35881 ft 429 kts 263°
2026-05-04 22:18 40.67169 50.28750 35881 ft 429 kts 263°
2026-05-04 22:18 40.66821 50.21718 35883 ft 429 kts 263°
2026-05-04 22:19 40.66429 50.13876 35887 ft 429 kts 263°
2026-05-04 22:19 40.66033 50.06047 35884 ft 429 kts 263°
2026-05-04 22:20 40.65630 49.98207 35886 ft 429 kts 263°
2026-05-04 22:20 40.65223 49.90367 35889 ft 429 kts 263°
2026-05-04 22:21 40.64810 49.82534 35885 ft 429 kts 263°
2026-05-04 22:21 40.64392 49.74691 35888 ft 429 kts 263°
2026-05-04 22:22 40.63969 49.66861 35892 ft 429 kts 262°
2026-05-04 22:22 40.63541 49.59035 35882 ft 429 kts 262°
2026-05-04 22:23 40.63108 49.51204 35891 ft 428 kts 262°
2026-05-04 22:23 40.62672 49.43422 35888 ft 428 kts 262°
2026-05-04 22:24 40.62229 49.35605 35882 ft 428 kts 262°
2026-05-04 22:24 40.61782 49.27774 35878 ft 428 kts 262°
2026-05-04 22:25 40.61329 49.19963 35881 ft 428 kts 262°
2026-05-04 22:25 40.61053 49.12120 35870 ft 430 kts 264°
2026-05-04 22:26 40.60962 49.05573 35871 ft 430 kts 265°
2026-05-04 22:26 40.60843 48.97705 35864 ft 430 kts 264°
2026-05-04 22:27 40.60662 48.88517 35864 ft 429 kts 264°
2026-05-04 22:27 40.60490 48.80704 35862 ft 430 kts 264°
2026-05-04 22:28 40.60340 48.74119 35859 ft 430 kts 264°
2026-05-04 22:28 40.60158 48.66285 35852 ft 431 kts 264°
2026-05-04 22:29 40.59970 48.58386 35858 ft 431 kts 264°
2026-05-04 22:29 40.59776 48.50499 35847 ft 431 kts 264°
2026-05-04 22:30 40.59578 48.42641 35862 ft 430 kts 264°
2026-05-04 22:30 40.59375 48.34756 35856 ft 431 kts 264°
2026-05-04 22:31 40.59169 48.26931 35849 ft 431 kts 264°
2026-05-04 22:31 40.58956 48.19050 35850 ft 431 kts 264°
2026-05-04 22:32 40.58740 48.11168 35860 ft 431 kts 264°
2026-05-04 22:32 40.58527 48.03275 35857 ft 432 kts 264°
2026-05-04 22:33 40.58318 47.95373 35864 ft 433 kts 265°
2026-05-04 22:33 40.58518 47.87422 35858 ft 436 kts 268°
2026-05-04 22:34 40.58805 47.79427 35856 ft 437 kts 268°
2026-05-04 22:34 40.59079 47.71430 35862 ft 437 kts 268°
2026-05-04 22:35 40.59338 47.63469 35859 ft 438 kts 268°
2026-05-04 22:35 40.59591 47.55449 35858 ft 439 kts 268°
2026-05-04 22:36 40.59839 47.47419 35857 ft 439 kts 268°
2026-05-04 22:36 40.60083 47.39369 35851 ft 440 kts 268°
2026-05-04 22:37 40.60322 47.31313 35849 ft 441 kts 267°
2026-05-04 22:37 40.60557 47.23242 35842 ft 441 kts 267°
2026-05-04 22:38 40.60973 47.15182 35842 ft 444 kts 272°
2026-05-04 22:38 40.61814 47.07109 35842 ft 445 kts 272°
2026-05-04 22:39 40.62657 46.99086 35840 ft 445 kts 272°
2026-05-04 22:39 40.63487 46.91012 35842 ft 445 kts 272°
2026-05-04 22:40 40.64308 46.82907 35844 ft 446 kts 272°
2026-05-04 22:40 40.65121 46.74805 35841 ft 446 kts 272°
2026-05-04 22:41 40.65927 46.66704 35847 ft 446 kts 272°
2026-05-04 22:41 40.66725 46.58642 35850 ft 447 kts 272°
2026-05-04 22:41 40.67126 46.54577 36010 ft 448 kts 270°
2026-05-04 22:42 40.67525 46.50493 35938 ft 449 kts 270°
2026-05-04 22:42 40.68321 46.42322 35866 ft 449 kts 270°
2026-05-04 22:43 40.69110 46.34175 35865 ft 448 kts 270°
2026-05-04 22:43 40.69893 46.26031 35856 ft 447 kts 270°
2026-05-04 22:44 40.70667 46.17896 35849 ft 447 kts 270°
2026-05-04 22:44 40.71432 46.09807 35854 ft 448 kts 270°
2026-05-04 22:45 40.72200 46.01630 35854 ft 451 kts 270°
2026-05-04 22:45 40.73347 45.89265 35842 ft 455 kts 270°
2026-05-04 22:46 40.74112 45.80970 35841 ft 456 kts 270°
2026-05-04 22:46 40.74874 45.72649 35843 ft 457 kts 270°
2026-05-04 22:47 40.75625 45.64372 35847 ft 457 kts 270°
2026-05-04 22:47 40.76377 45.56033 35848 ft 458 kts 270°
2026-05-04 22:48 40.77053 45.47696 35845 ft 455 kts 268°
2026-05-04 22:48 40.77441 45.39367 35860 ft 454 kts 267°
2026-05-04 22:49 40.77781 45.31073 35865 ft 455 kts 267°
2026-05-04 22:49 40.78138 45.22731 35873 ft 455 kts 267°
2026-05-04 22:50 40.78504 45.14375 35876 ft 456 kts 268°
2026-05-04 22:50 40.78868 45.06020 35878 ft 456 kts 268°
2026-05-04 22:51 40.79225 44.97690 35888 ft 457 kts 268°
2026-05-04 22:51 40.79573 44.89292 35879 ft 459 kts 268°
2026-05-04 22:52 40.79920 44.80883 35885 ft 458 kts 268°
2026-05-04 22:52 40.80260 44.72455 35880 ft 459 kts 268°
2026-05-04 22:53 40.80593 44.64107 35889 ft 457 kts 268°
2026-05-04 22:53 40.80920 44.55720 35895 ft 458 kts 268°
2026-05-04 22:54 40.81243 44.47312 35895 ft 459 kts 268°
2026-05-04 22:54 40.81556 44.38879 35904 ft 459 kts 268°
2026-05-04 22:55 40.81866 44.30443 35912 ft 461 kts 268°
2026-05-04 22:55 40.82171 44.21970 35922 ft 462 kts 268°
2026-05-04 22:56 40.82472 44.13474 35935 ft 463 kts 268°
2026-05-04 22:56 40.82766 44.05018 35934 ft 464 kts 268°
2026-05-04 22:57 40.83056 43.96491 35946 ft 465 kts 268°
2026-05-04 22:57 40.83342 43.87942 35944 ft 466 kts 268°
2026-05-04 22:58 40.83625 43.79360 35941 ft 467 kts 268°
2026-05-04 22:58 40.83919 43.70784 35938 ft 468 kts 268°
2026-05-04 22:59 40.84499 43.62261 35947 ft 470 kts 272°
2026-05-04 22:59 40.85290 43.53672 35943 ft 471 kts 272°
2026-05-04 23:00 40.86086 43.45063 35935 ft 472 kts 272°
2026-05-04 23:00 40.86860 43.36447 35937 ft 472 kts 272°
2026-05-04 23:01 40.87619 43.27833 35932 ft 472 kts 272°
2026-05-04 23:01 40.88364 43.19263 35927 ft 472 kts 272°
2026-05-04 23:02 40.89107 43.10655 35931 ft 471 kts 272°
2026-05-04 23:02 40.89844 43.02038 35938 ft 471 kts 272°
2026-05-04 23:03 40.90573 42.93439 35925 ft 471 kts 271°
2026-05-04 23:03 40.91291 42.84894 35933 ft 470 kts 271°
2026-05-04 23:04 40.92007 42.76297 35926 ft 470 kts 271°
2026-05-04 23:04 40.92718 42.67692 35947 ft 470 kts 271°
2026-05-04 23:05 40.93421 42.59090 35943 ft 470 kts 271°
2026-05-04 23:05 40.94118 42.50485 35931 ft 471 kts 271°
2026-05-04 23:06 40.94809 42.41868 35935 ft 471 kts 271°
2026-05-04 23:06 40.95491 42.33294 35940 ft 471 kts 271°
2026-05-04 23:07 40.96171 42.24652 35930 ft 472 kts 271°
2026-05-04 23:07 40.96847 42.15982 35920 ft 473 kts 271°
2026-05-04 23:08 40.97516 42.07316 35923 ft 473 kts 272°
2026-05-04 23:08 40.98174 41.98714 35918 ft 473 kts 272°
2026-05-04 23:09 40.98830 41.90036 35922 ft 474 kts 272°
2026-05-04 23:09 40.99481 41.81349 35921 ft 475 kts 272°
2026-05-04 23:10 41.00129 41.72625 35917 ft 476 kts 272°
2026-05-04 23:10 41.00770 41.63888 35910 ft 477 kts 272°
2026-05-04 23:11 41.01400 41.55196 35916 ft 477 kts 272°
2026-05-04 23:11 41.02028 41.46450 35919 ft 477 kts 272°
2026-05-04 23:12 41.02651 41.37690 35918 ft 478 kts 272°
2026-05-04 23:12 41.03267 41.28932 35928 ft 477 kts 272°
2026-05-04 23:13 41.03876 41.20165 35923 ft 478 kts 272°
2026-05-04 23:13 41.04477 41.11440 35903 ft 478 kts 272°
2026-05-04 23:14 41.05074 41.02667 35936 ft 478 kts 272°
2026-05-04 23:14 41.05662 40.93887 35907 ft 478 kts 272°
2026-05-04 23:15 41.06246 40.85108 35912 ft 478 kts 272°
2026-05-04 23:15 41.06825 40.76314 35924 ft 478 kts 272°
2026-05-04 23:16 41.07301 40.69007 35912 ft 479 kts 272°
2026-05-04 23:16 41.07958 40.58758 35920 ft 480 kts 272°
2026-05-04 23:17 41.08423 40.51414 35922 ft 480 kts 272°
2026-05-04 23:17 41.08977 40.42586 35923 ft 480 kts 272°
2026-05-04 23:18 41.09524 40.33754 35929 ft 481 kts 272°
2026-05-04 23:18 41.10065 40.24909 35927 ft 481 kts 272°
2026-05-04 23:19 41.10600 40.16066 35921 ft 481 kts 272°
2026-05-04 23:19 41.11128 40.07203 35921 ft 482 kts 272°
2026-05-04 23:20 41.11650 39.98343 35918 ft 482 kts 272°
2026-05-04 23:20 41.12165 39.89464 35916 ft 483 kts 272°
2026-05-04 23:21 41.12674 39.80581 35915 ft 483 kts 272°
2026-05-04 23:21 41.13177 39.71692 35916 ft 484 kts 272°
2026-05-04 23:22 41.13670 39.62845 35916 ft 484 kts 272°
2026-05-04 23:22 41.14160 39.53933 35913 ft 484 kts 272°
2026-05-04 23:23 41.14643 39.45008 35917 ft 485 kts 272°
2026-05-04 23:23 41.15121 39.36074 35922 ft 485 kts 272°
2026-05-04 23:24 41.15589 39.27184 35925 ft 486 kts 272°
2026-05-04 23:24 41.16053 39.18239 35928 ft 486 kts 272°
2026-05-04 23:25 41.16510 39.09276 35926 ft 487 kts 272°
2026-05-04 23:25 41.16961 39.00314 35925 ft 487 kts 272°
2026-05-04 23:26 41.17406 38.91328 35930 ft 487 kts 272°
2026-05-04 23:26 41.17844 38.82344 35926 ft 487 kts 272°
2026-05-04 23:27 41.18275 38.73353 35925 ft 488 kts 272°
2026-05-04 23:27 41.18699 38.64371 35920 ft 488 kts 272°
2026-05-04 23:28 41.19116 38.55366 35923 ft 488 kts 272°
2026-05-04 23:28 41.19527 38.46362 35920 ft 488 kts 272°
2026-05-04 23:29 41.19928 38.37402 35918 ft 489 kts 272°
2026-05-04 23:29 41.20325 38.28383 35915 ft 489 kts 272°
2026-05-04 23:30 41.20716 38.19362 35916 ft 489 kts 272°
2026-05-04 23:30 41.21099 38.10330 35913 ft 490 kts 272°
2026-05-04 23:31 41.21476 38.01288 35923 ft 490 kts 272°
2026-05-04 23:31 41.21845 37.92266 35925 ft 490 kts 272°
2026-05-04 23:32 41.22208 37.83201 35933 ft 491 kts 272°
2026-05-04 23:32 41.22565 37.74137 35936 ft 491 kts 272°
2026-05-04 23:33 41.22912 37.65127 35933 ft 491 kts 272°
2026-05-04 23:33 41.23255 37.56039 35938 ft 492 kts 272°
2026-05-04 23:34 41.23591 37.46952 35936 ft 492 kts 272°
2026-05-04 23:34 41.23920 37.37864 35936 ft 492 kts 272°
2026-05-04 23:35 41.24242 37.28770 35934 ft 493 kts 272°
2026-05-04 23:35 41.24554 37.19746 35932 ft 493 kts 272°
2026-05-04 23:36 41.24862 37.10648 35937 ft 493 kts 271°
2026-05-04 23:36 41.25163 37.01537 35940 ft 493 kts 271°
2026-05-04 23:37 41.25458 36.92403 35937 ft 493 kts 271°
2026-05-04 23:37 41.25745 36.83288 35938 ft 494 kts 271°
2026-05-04 23:38 41.26024 36.74221 35943 ft 494 kts 271°
2026-05-04 23:38 41.26301 36.65076 35941 ft 494 kts 271°
2026-05-04 23:39 41.26607 36.55939 35938 ft 494 kts 274°
2026-05-04 23:39 41.27724 36.46926 35943 ft 494 kts 281°
2026-05-04 23:40 41.29162 36.37969 35940 ft 495 kts 282°
2026-05-04 23:40 41.30581 36.29068 35938 ft 495 kts 281°
2026-05-04 23:41 41.31973 36.20097 35935 ft 496 kts 281°
2026-05-04 23:41 41.33347 36.11097 35934 ft 496 kts 281°
2026-05-04 23:42 41.34711 36.02097 35927 ft 496 kts 281°
2026-05-04 23:42 41.36067 35.93104 35930 ft 496 kts 281°
2026-05-04 23:43 41.37423 35.84073 35927 ft 496 kts 281°
2026-05-04 23:43 41.38770 35.75050 35923 ft 496 kts 281°
2026-05-04 23:44 41.40110 35.66026 35927 ft 496 kts 281°
2026-05-04 23:44 41.41442 35.56999 35924 ft 496 kts 281°
2026-05-04 23:45 41.42767 35.47969 35928 ft 496 kts 281°
2026-05-04 23:45 41.44075 35.39007 35930 ft 496 kts 281°
2026-05-04 23:46 41.45388 35.29963 35929 ft 496 kts 281°
2026-05-04 23:46 41.46692 35.20921 35931 ft 497 kts 281°
2026-05-04 23:47 41.47990 35.11869 35934 ft 497 kts 281°
2026-05-04 23:47 41.49282 35.02806 35939 ft 497 kts 281°
2026-05-04 23:48 41.50567 34.93739 35938 ft 497 kts 281°
2026-05-04 23:48 41.51842 34.84689 35943 ft 497 kts 281°
2026-05-04 23:49 41.53117 34.75591 35943 ft 498 kts 281°
2026-05-04 23:49 41.54381 34.66508 35952 ft 498 kts 282°
2026-05-04 23:50 41.55638 34.57423 35948 ft 498 kts 282°
2026-05-04 23:50 41.56888 34.48332 35958 ft 498 kts 282°
2026-05-04 23:51 41.58123 34.39293 35962 ft 497 kts 282°
2026-05-04 23:51 41.59359 34.30201 35969 ft 497 kts 282°
2026-05-04 23:52 41.60585 34.21115 35977 ft 497 kts 282°
2026-05-04 23:52 41.61806 34.12013 35978 ft 497 kts 282°
2026-05-04 23:53 41.63019 34.02919 35980 ft 497 kts 282°
2026-05-04 23:53 41.64225 33.93815 35981 ft 498 kts 282°
2026-05-04 23:54 41.65421 33.84732 35980 ft 498 kts 282°
2026-05-04 23:54 41.66617 33.75593 35990 ft 499 kts 282°
2026-05-04 23:55 41.67806 33.66445 35991 ft 499 kts 282°
2026-05-04 23:56 41.69577 33.52705 35988 ft 500 kts 282°
2026-05-04 23:56 41.70751 33.43526 35987 ft 500 kts 282°
2026-05-04 23:57 41.71917 33.34348 35980 ft 500 kts 282°
2026-05-04 23:57 41.73073 33.25179 35981 ft 500 kts 282°
2026-05-04 23:58 41.74224 33.15994 35981 ft 500 kts 282°
2026-05-04 23:58 41.75366 33.06822 35963 ft 499 kts 283°
2026-05-04 23:59 41.76501 32.97650 35966 ft 499 kts 283°
2026-05-04 23:59 41.77620 32.88543 35957 ft 499 kts 283°
2026-05-05 00:00 41.78739 32.79370 35948 ft 498 kts 283°
2026-05-05 00:00 41.79848 32.70210 35939 ft 498 kts 283°
2026-05-05 00:01 41.80947 32.61074 35948 ft 497 kts 283°
2026-05-05 00:01 41.81858 32.53463 35937 ft 496 kts 283°
2026-05-05 00:02 41.82942 32.44329 35938 ft 495 kts 283°
2026-05-05 00:02 41.84017 32.35218 35941 ft 494 kts 283°
2026-05-05 00:03 41.85082 32.26133 35937 ft 493 kts 283°
2026-05-05 00:03 41.86141 32.17027 35936 ft 493 kts 283°
2026-05-05 00:04 41.87191 32.07942 35936 ft 492 kts 283°
2026-05-05 00:04 41.88231 31.98863 35934 ft 492 kts 283°
2026-05-05 00:05 41.89262 31.89804 35940 ft 491 kts 283°
2026-05-05 00:05 41.90284 31.80762 35933 ft 491 kts 283°
2026-05-05 00:06 41.91305 31.71674 36349 ft 493 kts 282°
2026-05-05 00:06 41.91813 31.67122 36748 ft 491 kts 282°
2026-05-05 00:06 41.92316 31.62590 37134 ft 489 kts 282°
2026-05-05 00:06 41.92814 31.58082 37482 ft 488 kts 282°
2026-05-05 00:07 41.93311 31.53572 37800 ft 488 kts 281°
2026-05-05 00:07 41.94303 31.44547 37934 ft 491 kts 281°
2026-05-05 00:08 41.95292 31.35458 37933 ft 487 kts 281°
2026-05-05 00:08 41.96259 31.26504 37953 ft 485 kts 281°
2026-05-05 00:09 41.97220 31.17551 37954 ft 483 kts 281°
2026-05-05 00:09 41.98168 31.08648 37961 ft 482 kts 281°
2026-05-05 00:10 41.99113 30.99717 37964 ft 482 kts 281°
2026-05-05 00:10 42.00053 30.90750 37966 ft 483 kts 281°
2026-05-05 00:11 42.00983 30.81817 37968 ft 483 kts 281°
2026-05-05 00:11 42.01905 30.72890 37977 ft 484 kts 281°
2026-05-05 00:12 42.02823 30.63933 37977 ft 484 kts 281°
2026-05-05 00:12 42.03737 30.54932 37978 ft 484 kts 281°
2026-05-05 00:13 42.04639 30.45990 37985 ft 484 kts 281°
2026-05-05 00:13 42.05539 30.36997 37987 ft 483 kts 281°
2026-05-05 00:14 42.06427 30.28044 37992 ft 483 kts 281°
2026-05-05 00:14 42.07306 30.19109 37988 ft 482 kts 281°
2026-05-05 00:15 42.08177 30.10189 37992 ft 481 kts 281°
2026-05-05 00:15 42.09045 30.01234 37996 ft 481 kts 281°
2026-05-05 00:16 42.09899 29.92334 37998 ft 480 kts 281°
2026-05-05 00:16 42.10746 29.83439 38002 ft 479 kts 281°
2026-05-05 00:17 42.11586 29.74547 38004 ft 478 kts 281°
2026-05-05 00:17 42.12415 29.65704 38006 ft 477 kts 281°
2026-05-05 00:18 42.13240 29.56824 38010 ft 477 kts 281°
2026-05-05 00:18 42.14054 29.47987 38014 ft 476 kts 281°
2026-05-05 00:19 42.14863 29.39136 38021 ft 476 kts 281°
2026-05-05 00:19 42.15668 29.30258 38021 ft 476 kts 281°
2026-05-05 00:20 42.16463 29.21431 38023 ft 476 kts 281°
2026-05-05 00:20 42.17531 29.12699 38027 ft 471 kts 288°
2026-05-05 00:21 42.19585 29.04331 38033 ft 468 kts 293°
2026-05-05 00:21 42.21767 28.96108 38031 ft 468 kts 293°
2026-05-05 00:22 42.23939 28.87827 38039 ft 468 kts 293°
2026-05-05 00:22 42.26088 28.79507 38038 ft 468 kts 292°
2026-05-05 00:23 42.28210 28.71229 38039 ft 468 kts 292°
2026-05-05 00:23 42.30342 28.62878 38037 ft 469 kts 292°
2026-05-05 00:24 42.32457 28.54570 38042 ft 469 kts 292°
2026-05-05 00:24 42.34568 28.46249 38045 ft 469 kts 292°
2026-05-05 00:25 42.36681 28.37889 38043 ft 469 kts 292°
2026-05-05 00:25 42.38783 28.29548 38044 ft 470 kts 292°
2026-05-05 00:26 42.40892 28.21145 38046 ft 470 kts 292°
2026-05-05 00:26 42.42977 28.12813 38038 ft 470 kts 292°
2026-05-05 00:27 42.45073 28.04403 38040 ft 470 kts 292°
2026-05-05 00:27 42.47152 27.96033 38045 ft 470 kts 291°
2026-05-05 00:28 42.49227 27.87649 38044 ft 471 kts 291°
2026-05-05 00:28 42.51312 27.79190 38040 ft 471 kts 291°
2026-05-05 00:29 42.53380 27.70772 38049 ft 471 kts 291°
2026-05-05 00:29 42.55429 27.62403 38046 ft 471 kts 291°
2026-05-05 00:30 42.57495 27.53931 38051 ft 471 kts 291°
2026-05-05 00:30 42.59540 27.45513 38046 ft 471 kts 291°
2026-05-05 00:31 42.61580 27.37086 38041 ft 471 kts 291°
2026-05-05 00:31 42.63624 27.28613 38057 ft 471 kts 290°
2026-05-05 00:32 42.65653 27.20172 38066 ft 471 kts 290°
2026-05-05 00:32 42.67676 27.11719 38067 ft 472 kts 290°
2026-05-05 00:33 42.69704 27.03219 38068 ft 471 kts 290°
2026-05-05 00:33 42.71713 26.94766 38075 ft 471 kts 290°
2026-05-05 00:34 42.73724 26.86269 38076 ft 470 kts 290°
2026-05-05 00:34 42.75720 26.77806 38080 ft 470 kts 290°
2026-05-05 00:35 42.77702 26.69373 38076 ft 469 kts 290°
2026-05-05 00:35 42.79683 26.60909 38082 ft 469 kts 289°
2026-05-05 00:36 42.81655 26.52455 38077 ft 469 kts 289°
2026-05-05 00:36 42.83633 26.43942 38080 ft 469 kts 289°
2026-05-05 00:37 42.85588 26.35492 38073 ft 468 kts 289°
2026-05-05 00:37 42.87542 26.27020 38078 ft 468 kts 289°
2026-05-05 00:38 42.89482 26.18572 38076 ft 468 kts 289°
2026-05-05 00:38 42.91423 26.10090 38075 ft 468 kts 289°
2026-05-05 00:39 42.93357 26.01606 38072 ft 468 kts 289°
2026-05-05 00:39 42.95274 25.93161 38060 ft 468 kts 289°
2026-05-05 00:40 42.97202 25.84639 38061 ft 467 kts 289°
2026-05-05 00:40 42.99105 25.76195 38063 ft 467 kts 289°
2026-05-05 00:41 43.01008 25.67719 38047 ft 467 kts 289°
2026-05-05 00:41 43.02912 25.59218 38056 ft 466 kts 289°
2026-05-05 00:42 43.04799 25.50743 38057 ft 465 kts 289°
2026-05-05 00:42 43.06677 25.42280 38071 ft 465 kts 289°
2026-05-05 00:43 43.08546 25.33848 38075 ft 465 kts 289°
2026-05-05 00:43 43.10413 25.25390 38087 ft 464 kts 289°
2026-05-05 00:44 43.12268 25.16960 38089 ft 464 kts 289°
2026-05-05 00:44 43.14129 25.08473 38092 ft 464 kts 289°
2026-05-05 00:45 43.15968 25.00047 38087 ft 463 kts 289°
2026-05-05 00:45 43.17805 24.91596 38098 ft 463 kts 288°
2026-05-05 00:46 43.19632 24.83160 38101 ft 462 kts 288°
2026-05-05 00:46 43.21454 24.74715 38091 ft 462 kts 288°
2026-05-05 00:47 43.23272 24.66252 38102 ft 462 kts 288°
2026-05-05 00:47 43.25076 24.57823 38102 ft 462 kts 288°
2026-05-05 00:48 43.26890 24.49309 38100 ft 462 kts 288°
2026-05-05 00:48 43.28684 24.40857 38100 ft 462 kts 288°
2026-05-05 00:49 43.30472 24.32402 38107 ft 463 kts 288°
2026-05-05 00:49 43.32263 24.23897 38093 ft 463 kts 288°
2026-05-05 00:50 43.33739 24.16865 38087 ft 463 kts 288°
2026-05-05 00:50 43.35519 24.08356 38088 ft 463 kts 288°
2026-05-05 00:51 43.37295 23.99832 38095 ft 462 kts 288°
2026-05-05 00:51 43.38651 23.91209 38096 ft 465 kts 279°
2026-05-05 00:52 43.38902 23.82320 38086 ft 468 kts 271°
2026-05-05 00:52 43.38766 23.73360 38073 ft 468 kts 271°
2026-05-05 00:53 43.38633 23.64433 38084 ft 468 kts 271°
2026-05-05 00:53 43.38527 23.55483 38077 ft 468 kts 272°
2026-05-05 00:54 43.38426 23.46538 38074 ft 468 kts 272°
2026-05-05 00:54 43.38318 23.37597 38071 ft 468 kts 271°
2026-05-05 00:55 43.38202 23.28619 38079 ft 468 kts 271°
2026-05-05 00:55 43.38080 23.19690 38081 ft 468 kts 271°
2026-05-05 00:56 43.37950 23.10758 38083 ft 469 kts 271°
2026-05-05 00:56 43.37813 23.01771 38088 ft 469 kts 271°
2026-05-05 00:57 43.37673 22.92874 38096 ft 469 kts 271°
2026-05-05 00:57 43.37524 22.83889 38101 ft 468 kts 272°
2026-05-05 00:58 43.38106 22.75073 38117 ft 463 kts 283°
2026-05-05 00:58 43.39774 22.66547 38132 ft 458 kts 290°
2026-05-05 00:59 43.41811 22.58237 38114 ft 459 kts 291°
2026-05-05 00:59 43.43855 22.49930 38115 ft 459 kts 291°
2026-05-05 01:00 43.45874 22.41588 38117 ft 460 kts 290°
2026-05-05 01:00 43.47870 22.33253 38113 ft 459 kts 290°
2026-05-05 01:01 43.49870 22.24851 38127 ft 459 kts 290°
2026-05-05 01:01 43.51839 22.16550 38124 ft 459 kts 290°
2026-05-05 01:02 43.53816 22.08183 38120 ft 458 kts 290°
2026-05-05 01:02 43.55774 21.99871 38125 ft 457 kts 290°
2026-05-05 01:03 43.57736 21.91508 38118 ft 456 kts 290°
2026-05-05 01:03 43.59672 21.83225 38123 ft 455 kts 290°
2026-05-05 01:04 43.61601 21.74943 38114 ft 454 kts 290°
2026-05-05 01:04 43.64491 21.62478 38107 ft 453 kts 290°
2026-05-05 01:05 43.66404 21.54188 38117 ft 453 kts 290°
2026-05-05 01:05 43.68306 21.45911 38112 ft 453 kts 290°
2026-05-05 01:06 43.70205 21.37621 38105 ft 453 kts 290°
2026-05-05 01:06 43.72097 21.29326 38107 ft 453 kts 289°
2026-05-05 01:07 43.73992 21.20989 38099 ft 454 kts 289°
2026-05-05 01:07 43.75866 21.12707 38097 ft 454 kts 289°
2026-05-05 01:08 43.77748 21.04363 38101 ft 454 kts 289°
2026-05-05 01:08 43.79618 20.96038 38097 ft 453 kts 289°
2026-05-05 01:09 43.81494 20.87658 38100 ft 453 kts 289°
2026-05-05 01:09 43.83345 20.79354 38098 ft 453 kts 289°
2026-05-05 01:10 43.85199 20.71002 38103 ft 452 kts 289°
2026-05-05 01:10 43.87035 20.62703 38104 ft 452 kts 289°
2026-05-05 01:11 43.88866 20.54393 38100 ft 451 kts 289°
2026-05-05 01:11 43.90694 20.46060 38100 ft 451 kts 289°
2026-05-05 01:12 43.92515 20.37733 38098 ft 451 kts 288°
2026-05-05 01:12 43.94326 20.29417 38103 ft 451 kts 288°
2026-05-05 01:13 43.96131 20.21093 38102 ft 451 kts 288°
2026-05-05 01:13 43.97935 20.12748 38093 ft 451 kts 288°
2026-05-05 01:14 43.99735 20.04410 38096 ft 452 kts 288°
2026-05-05 01:14 44.01527 19.96055 38100 ft 452 kts 288°
2026-05-05 01:15 44.03319 19.87655 38097 ft 453 kts 288°
2026-05-05 01:15 44.05106 19.79246 38091 ft 454 kts 288°
2026-05-05 01:16 44.06880 19.70865 38094 ft 454 kts 288°
2026-05-05 01:16 44.08658 19.62438 38094 ft 454 kts 287°
2026-05-05 01:17 44.10434 19.53981 38093 ft 455 kts 287°
2026-05-05 01:17 44.12200 19.45535 38086 ft 455 kts 287°
2026-05-05 01:18 44.13962 19.37075 38086 ft 455 kts 287°
2026-05-05 01:18 44.15717 19.28615 38076 ft 454 kts 287°
2026-05-05 01:19 44.17466 19.20146 38084 ft 454 kts 287°
2026-05-05 01:19 44.19203 19.11701 38077 ft 454 kts 287°
2026-05-05 01:20 44.20925 19.03295 38078 ft 453 kts 287°
2026-05-05 01:20 44.22649 18.94842 38092 ft 452 kts 287°
2026-05-05 01:21 44.24363 18.86406 38089 ft 452 kts 287°
2026-05-05 01:21 44.26071 18.77964 38072 ft 452 kts 287°
2026-05-05 01:22 44.27772 18.69523 38078 ft 452 kts 287°
2026-05-05 01:22 44.29462 18.61091 38082 ft 451 kts 287°
2026-05-05 01:23 44.31150 18.52639 38065 ft 451 kts 286°
2026-05-05 01:23 44.32830 18.44191 38080 ft 451 kts 286°
2026-05-05 01:24 44.34506 18.35728 38064 ft 451 kts 286°
2026-05-05 01:24 44.36163 18.27324 38056 ft 451 kts 286°
2026-05-05 01:25 44.37823 18.18869 38077 ft 451 kts 286°
2026-05-05 01:25 44.39477 18.10414 38085 ft 451 kts 286°
2026-05-05 01:26 44.41125 18.01946 38076 ft 451 kts 285°
2026-05-05 01:26 44.42767 17.93469 38080 ft 451 kts 285°
2026-05-05 01:27 44.44402 17.84993 38082 ft 451 kts 285°
2026-05-05 01:27 44.46029 17.76522 38078 ft 451 kts 285°
2026-05-05 01:28 44.47652 17.68034 38079 ft 450 kts 285°
2026-05-05 01:28 44.49254 17.59627 38084 ft 449 kts 285°
2026-05-05 01:29 44.50858 17.51163 38078 ft 449 kts 285°
2026-05-05 01:29 44.52453 17.42712 38077 ft 448 kts 285°
2026-05-05 01:30 44.54039 17.34268 38074 ft 448 kts 285°
2026-05-05 01:30 44.55619 17.25822 38079 ft 447 kts 285°
2026-05-05 01:31 44.57191 17.17376 38071 ft 447 kts 284°
2026-05-05 01:31 44.58756 17.08937 38069 ft 447 kts 284°
2026-05-05 01:32 44.60314 17.00490 38080 ft 447 kts 284°
2026-05-05 01:32 44.61867 16.92036 38069 ft 447 kts 284°
2026-05-05 01:33 44.63413 16.83582 38073 ft 447 kts 284°
2026-05-05 01:33 44.64955 16.75112 38071 ft 448 kts 284°
2026-05-05 01:34 44.66483 16.66681 38075 ft 448 kts 284°
2026-05-05 01:34 44.68014 16.58189 38075 ft 448 kts 284°
2026-05-05 01:35 44.69541 16.49682 38072 ft 449 kts 284°
2026-05-05 01:35 44.71061 16.41178 38072 ft 449 kts 284°
2026-05-05 01:36 44.72578 16.32648 38081 ft 449 kts 283°
2026-05-05 01:36 44.74081 16.24158 38081 ft 450 kts 283°
2026-05-05 01:37 44.75586 16.15611 38076 ft 450 kts 283°
2026-05-05 01:37 44.77086 16.07058 38079 ft 450 kts 283°
2026-05-05 01:38 44.78330 15.99931 38084 ft 451 kts 283°
2026-05-05 01:38 44.79822 15.91346 38079 ft 451 kts 283°
2026-05-05 01:39 44.81308 15.82756 38081 ft 451 kts 283°
2026-05-05 01:39 44.82787 15.74165 38079 ft 451 kts 283°
2026-05-05 01:40 44.84257 15.65582 38084 ft 451 kts 283°
2026-05-05 01:40 44.85720 15.56999 38089 ft 451 kts 283°
2026-05-05 01:41 44.87177 15.48406 38082 ft 451 kts 283°
2026-05-05 01:41 44.88629 15.39803 38081 ft 451 kts 282°
2026-05-05 01:42 44.90075 15.31196 38078 ft 451 kts 282°
2026-05-05 01:42 44.91514 15.22583 38072 ft 451 kts 282°
2026-05-05 01:43 44.92946 15.13972 38079 ft 451 kts 282°
2026-05-05 01:43 44.94362 15.05409 38075 ft 451 kts 282°
2026-05-05 01:44 44.95790 14.96734 38075 ft 450 kts 282°
2026-05-05 01:44 44.97193 14.88170 38065 ft 451 kts 282°
2026-05-05 01:45 44.98600 14.79537 38067 ft 451 kts 282°
2026-05-05 01:45 44.99998 14.70912 38079 ft 450 kts 282°
2026-05-05 01:46 45.01392 14.62269 38083 ft 451 kts 282°
2026-05-05 01:46 45.02779 14.53623 38075 ft 451 kts 282°
2026-05-05 01:47 45.04161 14.44963 38075 ft 452 kts 282°
2026-05-05 01:47 45.05530 14.36346 38079 ft 452 kts 282°
2026-05-05 01:48 45.06899 14.27679 38057 ft 452 kts 282°
2026-05-05 01:48 45.08264 14.18992 38067 ft 452 kts 281°
2026-05-05 01:49 45.09621 14.10307 38052 ft 452 kts 281°
2026-05-05 01:49 45.10972 14.01617 38069 ft 452 kts 281°
2026-05-05 01:50 45.12316 13.92926 38057 ft 452 kts 281°
2026-05-05 01:50 45.13653 13.84232 38051 ft 451 kts 281°
2026-05-05 01:51 45.14984 13.75532 38053 ft 451 kts 281°
2026-05-05 01:51 45.16307 13.66837 38052 ft 451 kts 281°
2026-05-05 01:52 45.17615 13.58191 38041 ft 451 kts 281°
2026-05-05 01:52 45.18925 13.49488 38038 ft 451 kts 281°
2026-05-05 01:53 45.20234 13.40742 38035 ft 451 kts 281°
2026-05-05 01:53 45.21523 13.32084 38030 ft 451 kts 281°
2026-05-05 01:54 45.22817 13.23348 38029 ft 451 kts 281°
2026-05-05 01:54 45.24094 13.14678 38028 ft 451 kts 281°
2026-05-05 01:55 45.25376 13.05936 38030 ft 452 kts 280°
2026-05-05 01:55 45.26627 12.97228 38025 ft 452 kts 279°
2026-05-05 01:56 45.27657 12.88388 38021 ft 452 kts 277°
2026-05-05 01:56 45.28596 12.79610 38022 ft 452 kts 277°
2026-05-05 01:57 45.29557 12.70774 38025 ft 452 kts 277°
2026-05-05 01:57 45.30532 12.61953 38031 ft 452 kts 277°
2026-05-05 01:58 45.31502 12.53187 38027 ft 452 kts 277°
2026-05-05 01:58 45.32473 12.44354 38027 ft 452 kts 277°
2026-05-05 01:59 45.33437 12.35518 38025 ft 452 kts 277°
2026-05-05 01:59 45.34395 12.26668 38022 ft 452 kts 277°
2026-05-05 02:00 45.35343 12.17837 38023 ft 452 kts 277°
2026-05-05 02:00 45.36284 12.09006 38023 ft 452 kts 277°
2026-05-05 02:01 45.37213 12.00216 38022 ft 452 kts 277°
2026-05-05 02:01 45.38140 11.91384 38023 ft 452 kts 277°
2026-05-05 02:02 45.39060 11.82551 38026 ft 451 kts 276°
2026-05-05 02:02 45.39976 11.73692 38023 ft 451 kts 276°
2026-05-05 02:03 45.40884 11.64839 38040 ft 451 kts 276°
2026-05-05 02:03 45.41782 11.56006 38050 ft 451 kts 276°
2026-05-05 02:04 45.42669 11.47225 38057 ft 451 kts 276°
2026-05-05 02:04 45.43552 11.38404 38054 ft 451 kts 276°
2026-05-05 02:05 45.44432 11.29542 38050 ft 451 kts 276°
2026-05-05 02:05 45.45304 11.20691 38043 ft 451 kts 276°
2026-05-05 02:06 45.46164 11.11898 38019 ft 451 kts 276°
2026-05-05 02:06 45.47023 11.03038 38005 ft 451 kts 276°
2026-05-05 02:07 45.47875 10.94172 37999 ft 452 kts 276°
2026-05-05 02:07 45.48720 10.85303 37995 ft 452 kts 276°
2026-05-05 02:08 45.49561 10.76413 38007 ft 452 kts 276°
2026-05-05 02:08 45.50394 10.67523 38015 ft 453 kts 276°
2026-05-05 02:09 45.51221 10.58622 38020 ft 453 kts 275°
2026-05-05 02:09 45.52042 10.49711 38006 ft 453 kts 275°
2026-05-05 02:10 45.52849 10.40877 38003 ft 453 kts 275°
2026-05-05 02:10 45.53656 10.31959 37999 ft 453 kts 275°
2026-05-05 02:11 45.54456 10.23046 37999 ft 453 kts 275°
2026-05-05 02:11 45.55250 10.14112 37997 ft 454 kts 275°
2026-05-05 02:12 45.56428 10.00714 38005 ft 454 kts 275°
2026-05-05 02:13 45.57205 9.91770 37999 ft 454 kts 275°
2026-05-05 02:13 45.57975 9.82826 37998 ft 454 kts 275°
2026-05-05 02:14 45.58740 9.73866 37996 ft 454 kts 275°
2026-05-05 02:14 45.59496 9.64909 37996 ft 455 kts 275°
2026-05-05 02:14 45.59873 9.60419 38132 ft 455 kts 275°
2026-05-05 02:15 45.60248 9.55931 38132 ft 455 kts 275°
2026-05-05 02:15 45.60989 9.46997 38132 ft 455 kts 274°
2026-05-05 02:16 45.61727 9.38008 38122 ft 456 kts 274°
2026-05-05 02:16 45.62459 9.29005 38094 ft 456 kts 274°
2026-05-05 02:17 45.63185 9.19997 37996 ft 456 kts 274°
2026-05-05 02:17 45.63905 9.10993 37998 ft 456 kts 274°
2026-05-05 02:18 45.64763 9.02004 37994 ft 458 kts 279°
2026-05-05 02:18 45.66525 8.93296 38000 ft 459 kts 285°
2026-05-05 02:19 45.68530 8.84618 38002 ft 460 kts 285°
2026-05-05 02:19 45.70516 8.75926 37997 ft 460 kts 285°
2026-05-05 02:20 45.72478 8.67197 38004 ft 459 kts 285°
2026-05-05 02:20 45.74423 8.58476 37990 ft 460 kts 284°
2026-05-05 02:21 45.76348 8.49797 37998 ft 459 kts 284°
2026-05-05 02:21 45.78281 8.41060 37998 ft 460 kts 284°
2026-05-05 02:22 45.80204 8.32326 38010 ft 460 kts 284°
2026-05-05 02:22 45.81802 8.25046 38024 ft 460 kts 284°
2026-05-05 02:23 45.84030 8.14850 38013 ft 461 kts 284°
2026-05-05 02:23 45.85631 8.07490 38014 ft 461 kts 284°
2026-05-05 02:24 45.87537 7.98700 37995 ft 461 kts 284°
2026-05-05 02:24 45.89433 7.89919 38018 ft 461 kts 284°
2026-05-05 02:25 45.91315 7.81167 38010 ft 461 kts 284°
2026-05-05 02:25 45.93202 7.72349 37999 ft 462 kts 283°
2026-05-05 02:26 45.95086 7.63515 37996 ft 463 kts 283°
2026-05-05 02:26 45.97485 7.54901 37985 ft 468 kts 294°
2026-05-05 02:27 46.01016 7.46991 37973 ft 473 kts 304°
2026-05-05 02:27 46.05140 7.39593 37952 ft 473 kts 305°
2026-05-05 02:28 46.09293 7.32226 37947 ft 472 kts 305°
2026-05-05 02:28 46.13367 7.24887 37950 ft 472 kts 304°
2026-05-05 02:29 46.17439 7.17475 37942 ft 470 kts 304°
2026-05-05 02:29 46.21490 7.10077 37946 ft 469 kts 304°
2026-05-05 02:30 46.25528 7.02684 37952 ft 468 kts 304°
2026-05-05 02:30 46.29565 6.95279 37949 ft 469 kts 304°
2026-05-05 02:31 46.33600 6.87859 37942 ft 469 kts 304°
2026-05-05 02:31 46.37624 6.80439 37968 ft 469 kts 304°
2026-05-05 02:32 46.41656 6.72985 37984 ft 470 kts 304°
2026-05-05 02:32 46.45481 6.65387 37960 ft 468 kts 297°
2026-05-05 02:33 46.48726 6.57206 37966 ft 467 kts 296°
2026-05-05 02:33 46.51916 6.48978 37961 ft 468 kts 296°
2026-05-05 02:34 46.55138 6.40739 37962 ft 469 kts 296°
2026-05-05 02:34 46.58371 6.32509 37961 ft 469 kts 296°
2026-05-05 02:35 46.61596 6.24289 37973 ft 468 kts 296°
2026-05-05 02:35 46.64818 6.16045 37962 ft 468 kts 296°
2026-05-05 02:36 46.68011 6.07854 37965 ft 468 kts 296°
2026-05-05 02:36 46.71219 5.99597 37959 ft 467 kts 296°
2026-05-05 02:37 46.74412 5.91351 37968 ft 467 kts 296°
2026-05-05 02:37 46.77603 5.83092 37960 ft 467 kts 296°
2026-05-05 02:38 46.81123 5.75121 37943 ft 472 kts 308°
2026-05-05 02:38 46.86132 5.68825 37943 ft 482 kts 325°
2026-05-05 02:39 46.92001 5.64104 37944 ft 485 kts 328°
2026-05-05 02:39 46.97976 5.59475 37946 ft 485 kts 328°
2026-05-05 02:40 47.03917 5.54747 37944 ft 486 kts 327°
2026-05-05 02:40 47.09843 5.49951 37939 ft 487 kts 327°
2026-05-05 02:41 47.15770 5.45135 37941 ft 487 kts 327°
2026-05-05 02:41 47.21714 5.40302 37938 ft 488 kts 327°
2026-05-05 02:42 47.27615 5.35494 37920 ft 488 kts 327°
2026-05-05 02:42 47.33560 5.30644 37917 ft 488 kts 328°
2026-05-05 02:43 47.39517 5.25789 37921 ft 489 kts 328°
2026-05-05 02:43 47.45472 5.20923 37918 ft 489 kts 328°
2026-05-05 02:44 47.51430 5.16040 37919 ft 489 kts 328°
2026-05-05 02:44 47.57403 5.11131 37940 ft 495 kts 328°
2026-05-05 02:45 47.63019 5.05354 37940 ft 489 kts 316°
2026-05-05 02:45 47.68067 4.98735 37905 ft 482 kts 314°
2026-05-05 02:46 47.73096 4.92114 37921 ft 482 kts 315°
2026-05-05 02:46 47.78192 4.85605 37914 ft 484 kts 316°
2026-05-05 02:47 47.83310 4.79139 37917 ft 485 kts 316°
2026-05-05 02:47 47.88458 4.72626 37599 ft 476 kts 316°
2026-05-05 02:47 47.90954 4.69457 36946 ft 475 kts 315°
2026-05-05 02:48 47.93490 4.66227 35875 ft 483 kts 315°
2026-05-05 02:48 47.96039 4.62969 34742 ft 493 kts 314°
2026-05-05 02:48 47.98684 4.59584 33582 ft 503 kts 313°
2026-05-05 02:48 48.01332 4.56197 32654 ft 505 kts 314°
2026-05-05 02:49 48.03993 4.52798 32068 ft 498 kts 314°
2026-05-05 02:49 48.06592 4.49476 31626 ft 490 kts 314°
2026-05-05 02:49 48.09178 4.46160 31178 ft 482 kts 314°
2026-05-05 02:49 48.11692 4.42929 30664 ft 477 kts 314°
2026-05-05 02:50 48.14206 4.39686 30110 ft 474 kts 314°
2026-05-05 02:50 48.16669 4.36473 29476 ft 470 kts 314°
2026-05-05 02:50 48.19142 4.33222 28867 ft 466 kts 314°
2026-05-05 02:50 48.21542 4.30065 28330 ft 461 kts 314°
2026-05-05 02:51 48.23961 4.26884 27805 ft 456 kts 315°
2026-05-05 02:51 48.26299 4.23787 27284 ft 450 kts 313°
2026-05-05 02:51 48.28469 4.20405 26632 ft 445 kts 307°
2026-05-05 02:51 48.30418 4.16853 25950 ft 444 kts 304°
2026-05-05 02:52 48.32330 4.13172 25265 ft 444 kts 304°
2026-05-05 02:52 48.34210 4.09550 24684 ft 441 kts 305°
2026-05-05 02:52 48.36115 4.05940 24193 ft 437 kts 306°
2026-05-05 02:52 48.38000 4.02428 23736 ft 432 kts 307°
2026-05-05 02:53 48.39892 3.98943 23210 ft 428 kts 307°
2026-05-05 02:53 48.41787 3.95469 22642 ft 424 kts 308°
2026-05-05 02:53 48.43639 3.92076 22177 ft 419 kts 308°
2026-05-05 02:53 48.45482 3.88694 21749 ft 414 kts 308°
2026-05-05 02:54 48.47292 3.85366 21359 ft 412 kts 308°
2026-05-05 02:54 48.49118 3.82003 20968 ft 412 kts 308°
2026-05-05 02:54 48.50920 3.78679 20587 ft 413 kts 308°
2026-05-05 02:54 48.52740 3.75317 20193 ft 411 kts 308°
2026-05-05 02:55 48.54531 3.71930 19865 ft 407 kts 305°
2026-05-05 02:55 48.56083 3.68443 19683 ft 400 kts 301°
2026-05-05 02:55 48.57527 3.64904 19461 ft 399 kts 300°
2026-05-05 02:55 48.59006 3.61325 19270 ft 402 kts 301°
2026-05-05 02:56 48.60520 3.57753 19066 ft 404 kts 301°
2026-05-05 02:56 48.62039 3.54212 18834 ft 404 kts 302°
2026-05-05 02:56 48.63572 3.50635 18594 ft 403 kts 302°
2026-05-05 02:56 48.65089 3.47093 18349 ft 403 kts 302°
2026-05-05 02:57 48.66614 3.43525 18098 ft 402 kts 302°
2026-05-05 02:57 48.68115 3.40006 17814 ft 400 kts 302°
2026-05-05 02:57 48.69625 3.36463 17543 ft 398 kts 302°
2026-05-05 02:57 48.71122 3.32945 17290 ft 395 kts 302°
2026-05-05 02:58 48.72592 3.29485 17055 ft 392 kts 302°
2026-05-05 02:58 48.74067 3.26011 16813 ft 389 kts 302°
2026-05-05 02:58 48.75516 3.22591 16576 ft 386 kts 302°
2026-05-05 02:58 48.76967 3.19164 16348 ft 384 kts 302°
2026-05-05 02:59 48.78408 3.15756 16119 ft 382 kts 302°
2026-05-05 02:59 48.79840 3.12365 15887 ft 381 kts 302°
2026-05-05 02:59 48.81265 3.08987 15655 ft 379 kts 302°
2026-05-05 02:59 48.82664 3.05664 15447 ft 378 kts 302°
2026-05-05 03:00 48.84106 3.02289 15206 ft 377 kts 304°
2026-05-05 03:00 48.85708 2.99196 14972 ft 376 kts 311°
2026-05-05 03:00 48.87478 2.96309 14757 ft 367 kts 313°
2026-05-05 03:00 48.89206 2.93497 14533 ft 357 kts 312°
2026-05-05 03:01 48.90860 2.90772 14302 ft 348 kts 312°
2026-05-05 03:01 48.92433 2.88078 14091 ft 335 kts 306°
2026-05-05 03:01 48.93412 2.84933 13873 ft 326 kts 283°
2026-05-05 03:01 48.93619 2.81534 13551 ft 321 kts 266°
2026-05-05 03:02 48.93458 2.78165 13241 ft 316 kts 264°
2026-05-05 03:02 48.93259 2.74884 12924 ft 312 kts 264°
2026-05-05 03:02 48.93058 2.71614 12628 ft 308 kts 264°
2026-05-05 03:02 48.92866 2.68367 12336 ft 305 kts 264°
2026-05-05 03:03 48.92683 2.65169 12047 ft 302 kts 264°
2026-05-05 03:03 48.92506 2.61984 11750 ft 300 kts 264°
2026-05-05 03:03 48.92335 2.58865 11481 ft 299 kts 264°
2026-05-05 03:03 48.92164 2.55702 11196 ft 297 kts 264°
2026-05-05 03:04 48.91995 2.52598 10914 ft 296 kts 264°
2026-05-05 03:04 48.91823 2.49466 10626 ft 295 kts 264°
2026-05-05 03:04 48.91650 2.46345 10343 ft 294 kts 264°
2026-05-05 03:04 48.91481 2.43291 10068 ft 291 kts 264°
2026-05-05 03:05 48.91309 2.40211 9772 ft 289 kts 264°
2026-05-05 03:05 48.91140 2.37213 9494 ft 286 kts 265°
2026-05-05 03:05 48.90971 2.34200 9205 ft 283 kts 265°
2026-05-05 03:05 48.90802 2.31223 8920 ft 280 kts 265°
2026-05-05 03:06 48.90638 2.28314 8652 ft 278 kts 265°
2026-05-05 03:06 48.90472 2.25381 8398 ft 276 kts 265°
2026-05-05 03:06 48.90308 2.22500 8128 ft 275 kts 265°
2026-05-05 03:06 48.90142 2.19599 7864 ft 273 kts 265°
2026-05-05 03:07 48.89975 2.16722 7599 ft 272 kts 265°
2026-05-05 03:07 48.89811 2.13900 7353 ft 271 kts 264°
2026-05-05 03:07 48.89748 2.11038 6973 ft 269 kts 280°
2026-05-05 03:07 48.90500 2.08477 6653 ft 268 kts 311°
2026-05-05 03:08 48.91981 2.06794 6376 ft 264 kts 340°
2026-05-05 03:08 48.93746 2.06334 6118 ft 259 kts
2026-05-05 03:08 48.95421 2.07084 5896 ft 250 kts 30°
2026-05-05 03:08 48.96756 2.08728 5649 ft 244 kts 52°
2026-05-05 03:09 48.97726 2.10824 5406 ft 240 kts 57°
2026-05-05 03:09 48.98614 2.12935 5147 ft 238 kts 58°
2026-05-05 03:09 48.99519 2.15072 4886 ft 243 kts 57°
2026-05-05 03:09 49.00342 2.17361 4621 ft 254 kts 72°
2026-05-05 03:10 49.00707 2.20001 4375 ft 256 kts 82°
2026-05-05 03:10 49.00888 2.22720 4103 ft 258 kts 85°
2026-05-05 03:10 49.01022 2.25401 3909 ft 255 kts 85°
2026-05-05 03:10 49.01163 2.28134 3562 ft 258 kts 85°
2026-05-05 03:11 49.01307 2.30839 3230 ft 259 kts 84°
2026-05-05 03:11 49.01452 2.33523 2890 ft 249 kts 84°
2026-05-05 03:11 49.01589 2.36082 2572 ft 230 kts 84°
2026-05-05 03:11 49.01713 2.38394 2287 ft 210 kts 84°
2026-05-05 03:12 49.01827 2.40525 1993 ft 192 kts 84°
2026-05-05 03:12 49.01896 2.41806 1823 ft 178 kts 83°
2026-05-05 03:12 49.02019 2.44097 1506 ft 149 kts 83°
2026-05-05 03:12 49.02075 2.45123 1388 ft 145 kts 82°
2026-05-05 03:13 49.02158 2.46652 1199 ft 145 kts 83°
2026-05-05 03:13 49.02240 2.48203 982 ft 146 kts 82°
2026-05-05 03:13 49.02321 2.49722 775 ft 144 kts 83°
2026-05-05 03:13 49.02402 2.51259 587 ft 145 kts 83°
2026-05-05 03:14 49.02484 2.52764 408 ft 143 kts 83°
2026-05-05 03:14 49.02567 2.54182 392 ft 114 kts 86°
2026-05-05 03:14 49.02610 2.54975 390 ft 62 kts 89°
2026-05-05 03:14 49.02491 2.55552 395 ft 53 kts 110°
2026-05-05 03:15 49.02485 2.56069 392 ft 33 kts 98°
2026-05-05 03:15 49.02404 2.56157 389 ft 25 kts 171°
2026-05-05 03:15 49.02256 2.56243 388 ft 20 kts 131°
2026-05-05 03:15 49.02127 2.56317 392 ft 20 kts 172°
2026-05-05 03:16 49.01973 2.56358 391 ft 25 kts 143°
2026-05-05 03:16 49.01949 2.56639 391 ft 33 kts 87°
2026-05-05 03:16 49.01969 2.57091 379 ft 45 kts 85°
2026-05-05 03:16 49.01992 2.57550 376 ft 43 kts 85°
2026-05-05 03:17 49.01915 2.57938 378 ft 39 kts 148°
2026-05-05 03:17 49.01644 2.58012 368 ft 40 kts 175°
2026-05-05 03:17 49.01494 2.57895 368 ft 25 kts 273°
2026-05-05 03:17 49.01549 2.57772 369 ft 8 kts 354°
2026-05-05 03:18 49.01598 2.57769 365 ft 0 kts 356°